QPF
0.02 0.02 0.01 0.01 0.01 0.01 0.02 0.01 0.00 0.00 0.00 0.00 0.00 0.00 0.00 0.00 0.01 0.01 0.00 0.00 0.01 0.01 0.01 0.01 0.02 0.02 0.01 0.00 0.01 0.01 0.02 0.02 0.02 0.03 0.03 0.03 0.03 0.03 0.03 0.02 0.04 0.05 0.06 0.06
0.03 0.02 0.02 0.00 0.00 0.00 0.01 0.01 0.01 0.00 0.00 0.00 0.00 0.00 0.00 0.01 0.01 0.01 0.00 0.00 0.00 0.01 0.02 0.02 0.02 0.02 0.01 0.01 0.01 0.01 0.02 0.02 0.03 0.03 0.03 0.03 0.03 0.03 0.03 0.02 0.02 0.03 0.04 0.04
0.04 0.03 0.01 0.00 0.00 0.01 0.01 0.02 0.01 0.00 0.00 0.00 0.00 0.00 0.01 0.01 0.01 0.02 0.01 0.01 0.01 0.01 0.02 0.02 0.01 0.01 0.01 0.01 0.01 0.01 0.01 0.01 0.02 0.03 0.03 0.03 0.03 0.03 0.04 0.03 0.01 0.01 0.02 0.03
0.02 0.02 0.01 0.01 0.00 0.00 0.01 0.01 0.01 0.00 0.00 0.00 0.00 0.00 0.01 0.01 0.02 0.03 0.03 0.02 0.02 0.01 0.01 0.01 0.01 0.01 0.00 0.00 0.00 0.01 0.01 0.01 0.02 0.03 0.02 0.03 0.03 0.03 0.03 0.04 0.03 0.01 0.01 0.01
0.02 0.02 0.03 0.02 0.01 0.00 0.00 0.00 0.01 0.01 0.00 0.00 0.00 0.01 0.01 0.01 0.02 0.03 0.04 0.03 0.02 0.02 0.02 0.02 0.01 0.01 0.00 0.00 0.01 0.01 0.01 0.01 0.01 0.02 0.03 0.02 0.02 0.02 0.02 0.03 0.04 0.03 0.02 0.01
0.01 0.01 0.02 0.03 0.01 0.00 0.00 0.00 0.00 0.02 0.02 0.01 0.01 0.01 0.01 0.02 0.02 0.03 0.04 0.03 0.02 0.03 0.03 0.03 0.02 0.02 0.01 0.01 0.01 0.01 0.01 0.01 0.01 0.02 0.02 0.02 0.02 0.02 0.02 0.02 0.02 0.03 0.03 0.02
0.00 0.00 0.01 0.02 0.02 0.01 0.00 0.01 0.01 0.02 0.05 0.04 0.01 0.00 0.01 0.01 0.02 0.04 0.04 0.03 0.02 0.02 0.02 0.02 0.02 0.02 0.02 0.02 0.01 0.01 0.02 0.02 0.02 0.02 0.02 0.03 0.02 0.02 0.02 0.02 0.02 0.02 0.03 0.03
0.00 0.00 0.00 0.01 0.02 0.03 0.01 0.01 0.01 0.01 0.02 0.02 0.01 0.00 0.00 0.01 0.02 0.05 0.04 0.03 0.02 0.01 0.02 0.02 0.02 0.02 0.02 0.02 0.02 0.01 0.02 0.02 0.02 0.02 0.02 0.02 0.02 0.02 0.03 0.02 0.02 0.02 0.02 0.02
0.01 0.00 0.00 0.00 0.01 0.03 0.02 0.01 0.00 0.01 0.00 0.01 0.02 0.01 0.01 0.01 0.02 0.07 0.07 0.04 0.02 0.02 0.01 0.02 0.02 0.03 0.03 0.03 0.02 0.01 0.01 0.01 0.02 0.02 0.02 0.02 0.02 0.02 0.02 0.02 0.02 0.02 0.02 0.02
0.01 0.01 0.00 0.00 0.00 0.02 0.04 0.01 0.00 0.00 0.00 0.00 0.01 0.02 0.01 0.01 0.01 0.05 0.09 0.07 0.03 0.02 0.02 0.02 0.03 0.04 0.05 0.05 0.05 0.03 0.01 0.01 0.01 0.02 0.02 0.02 0.02 0.02 0.01 0.02 0.02 0.01 0.01 0.02
0.02 0.01 0.00 0.00 0.00 0.01 0.03 0.04 0.01 0.01 0.01 0.00 0.01 0.01 0.01 0.01 0.01 0.03 0.08 0.08 0.05 0.02 0.03 0.03 0.03 0.04 0.06 0.07 0.07 0.06 0.02 0.02 0.02 0.02 0.02 0.02 0.02 0.02 0.02 0.01 0.01 0.01 0.01 0.01
0.02 0.02 0.01 0.00 0.00 0.01 0.02 0.05 0.04 0.02 0.01 0.00 0.01 0.01 0.01 0.00 0.00 0.02 0.04 0.06 0.06 0.03 0.03 0.04 0.04 0.05 0.06 0.09 0.09 0.07 0.05 0.03 0.02 0.02 0.02 0.03 0.02 0.02 0.02 0.01 0.01 0.01 0.01 0.01
0.02 0.03 0.02 0.01 0.01 0.01 0.02 0.03 0.04 0.03 0.02 0.01 0.01 0.01 0.01 0.00 0.00 0.01 0.02 0.04 0.06 0.05 0.04 0.04 0.04 0.05 0.07 0.09 0.09 0.08 0.08 0.06 0.04 0.03 0.03 0.04 0.03 0.02 0.01 0.01 0.01 0.01 0.01 0.01
0.03 0.03 0.02 0.01 0.01 0.01 0.01 0.02 0.03 0.04 0.03 0.01 0.00 0.01 0.01 0.01 0.01 0.01 0.02 0.04 0.06 0.06 0.04 0.04 0.05 0.05 0.08 0.09 0.08 0.07 0.09 0.11 0.09 0.05 0.04 0.05 0.04 0.02 0.02 0.01 0.01 0.01 0.02 0.03
0.03 0.03 0.01 0.01 0.01 0.01 0.01 0.01 0.02 0.03 0.03 0.02 0.01 0.01 0.01 0.02 0.02 0.02 0.02 0.03 0.05 0.06 0.05 0.05 0.05 0.06 0.07 0.09 0.08 0.06 0.06 0.09 0.12 0.10 0.07 0.06 0.05 0.04 0.03 0.03 0.02 0.02 0.03 0.04
0.03 0.03 0.02 0.01 0.01 0.01 0.01 0.01 0.01 0.02 0.03 0.02 0.02 0.01 0.02 0.01 0.01 0.01 0.01 0.02 0.03 0.05 0.05 0.05 0.06 0.06 0.07 0.09 0.09 0.07 0.06 0.07 0.10 0.11 0.11 0.08 0.07 0.06 0.05 0.04 0.03 0.03 0.04 0.05
0.03 0.03 0.03 0.02 0.01 0.01 0.01 0.02 0.02 0.02 0.03 0.03 0.03 0.02 0.02 0.01 0.01 0.01 0.02 0.02 0.02 0.04 0.06 0.05 0.06 0.06 0.08 0.10 0.10 0.08 0.07 0.06 0.08 0.09 0.09 0.10 0.09 0.08 0.06 0.06 0.06 0.06 0.05 0.06
0.02 0.03 0.04 0.02 0.01 0.02 0.02 0.02 0.02 0.02 0.02 0.03 0.03 0.03 0.02 0.02 0.02 0.02 0.02 0.02 0.02 0.02 0.05 0.05 0.05 0.05 0.06 0.09 0.11 0.09 0.08 0.07 0.08 0.07 0.07 0.07 0.08 0.08 0.08 0.08 0.08 0.08 0.08 0.08
0.02 0.03 0.04 0.04 0.03 0.02 0.02 0.02 0.02 0.02 0.02 0.02 0.02 0.03 0.02 0.02 0.01 0.01 0.02 0.02 0.02 0.02 0.03 0.05 0.06 0.05 0.05 0.07 0.08 0.09 0.08 0.07 0.07 0.07 0.07 0.07 0.07 0.08 0.08 0.08 0.08 0.08 0.08 0.09
0.01 0.02 0.04 0.05 0.04 0.03 0.02 0.01 0.01 0.02 0.02 0.02 0.02 0.02 0.02 0.02 0.02 0.02 0.02 0.02 0.03 0.03 0.03 0.04 0.05 0.06 0.05 0.06 0.06 0.08 0.08 0.07 0.08 0.08 0.08 0.07 0.07 0.08 0.08 0.08 0.08 0.08 0.08 0.08
0.02 0.03 0.03 0.03 0.03 0.03 0.02 0.01 0.01 0.03 0.03 0.01 0.01 0.02 0.02 0.02 0.03 0.02 0.02 0.02 0.02 0.02 0.02 0.02 0.03 0.05 0.06 0.06 0.06 0.07 0.08 0.08 0.08 0.07 0.07 0.07 0.07 0.07 0.07 0.07 0.07 0.07 0.08 0.09
0.02 0.03 0.03 0.03 0.04 0.04 0.03 0.01 0.03 0.03 0.02 0.02 0.02 0.02 0.03 0.03 0.03 0.02 0.02 0.02 0.02 0.02 0.02 0.02 0.02 0.03 0.04 0.06 0.06 0.07 0.08 0.08 0.07 0.07 0.06 0.06 0.07 0.07 0.06 0.07 0.07 0.06 0.07 0.07
0.01 0.02 0.03 0.04 0.04 0.03 0.03 0.02 0.03 0.03 0.04 0.04 0.03 0.03 0.03 0.03 0.03 0.02 0.02 0.02 0.02 0.02 0.02 0.02 0.02 0.02 0.03 0.04 0.06 0.07 0.08 0.09 0.08 0.07 0.06 0.06 0.07 0.06 0.06 0.06 0.05 0.06 0.06 0.06
0.01 0.01 0.02 0.02 0.02 0.02 0.02 0.03 0.03 0.04 0.04 0.03 0.03 0.03 0.03 0.02 0.02 0.02 0.02 0.02 0.02 0.02 0.01 0.01 0.02 0.02 0.02 0.03 0.04 0.05 0.05 0.07 0.08 0.08 0.08 0.07 0.07 0.07 0.07 0.06 0.06 0.05 0.06 0.05
0.02 0.02 0.01 0.01 0.01 0.01 0.01 0.02 0.02 0.02 0.02 0.02 0.02 0.02 0.02 0.02 0.02 0.02 0.01 0.01 0.01 0.01 0.01 0.01 0.01 0.01 0.01 0.02 0.02 0.03 0.03 0.04 0.04 0.05 0.06 0.07 0.07 0.08 0.08 0.07 0.07 0.06 0.06 0.06
0.02 0.03 0.03 0.02 0.02 0.02 0.02 0.02 0.02 0.02 0.02 0.02 0.02 0.02 0.02 0.02 0.02 0.02 0.01 0.01 0.01 0.01 0.00 0.00 0.00 0.00 0.01 0.01 0.01 0.02 0.02 0.03 0.03 0.03 0.03 0.04 0.04 0.05 0.06 0.06 0.07 0.07 0.06 0.06
MSLP
1014.00 1014.01 1014.05 1014.11 1014.21 1014.32 1014.44 1014.56 1014.63 1014.65 1014.59 1014.45 1014.25 1014.01 1013.77 1013.59 1013.51 1013.57 1013.80 1014.19 1014.74 1015.42 1016.18 1016.99 1017.80 1018.59 1019.35 1020.06 1020.74 1021.38 1022.01 1022.61 1023.18 1023.72 1024.20 1024.61 1024.94 1025.18 1025.34 1025.43 1025.47 1025.46 1025.45 1025.43
1014.72 1014.76 1014.80 1014.84 1014.89 1014.94 1015.00 1015.04 1015.04 1014.97 1014.82 1014.58 1014.26 1013.90 1013.54 1013.23 1013.03 1012.98 1013.11 1013.43 1013.93 1014.57 1015.33 1016.15 1017.00 1017.83 1018.65 1019.43 1020.18 1020.92 1021.62 1022.31 1022.97 1023.58 1024.13 1024.58 1024.94 1025.20 1025.35 1025.42 1025.43 1025.41 1025.37 1025.34
1015.80 1015.86 1015.90 1015.90 1015.90 1015.88 1015.85 1015.80 1015.69 1015.52 1015.26 1014.91 1014.49 1014.01 1013.53 1013.10 1012.79 1012.63 1012.66 1012.90 1013.33 1013.93 1014.66 1015.47 1016.32 1017.18 1018.04 1018.88 1019.70 1020.50 1021.30 1022.07 1022.80 1023.47 1024.07 1024.56 1024.94 1025.20 1025.34 1025.39 1025.38 1025.32 1025.26 1025.21
1017.23 1017.31 1017.33 1017.30 1017.24 1017.14 1017.02 1016.86 1016.65 1016.37 1016.01 1015.55 1015.02 1014.44 1013.87 1013.34 1012.93 1012.69 1012.63 1012.79 1013.14 1013.67 1014.34 1015.11 1015.94 1016.79 1017.65 1018.52 1019.38 1020.23 1021.08 1021.90 1022.68 1023.40 1024.02 1024.53 1024.91 1025.16 1025.29 1025.32 1025.28 1025.21 1025.14 1025.07
1018.93 1019.00 1019.00 1018.93 1018.82 1018.66 1018.46 1018.21 1017.91 1017.53 1017.08 1016.53 1015.92 1015.27 1014.62 1014.03 1013.55 1013.24 1013.11 1013.19 1013.47 1013.92 1014.52 1015.21 1015.97 1016.77 1017.60 1018.44 1019.29 1020.15 1021.00 1021.84 1022.62 1023.34 1023.96 1024.46 1024.83 1025.06 1025.17 1025.19 1025.15 1025.07 1024.99 1024.91
1020.74 1020.79 1020.77 1020.67 1020.52 1020.31 1020.06 1019.76 1019.39 1018.95 1018.43 1017.83 1017.16 1016.46 1015.77 1015.14 1014.63 1014.28 1014.11 1014.13 1014.33 1014.70 1015.20 1015.79 1016.46 1017.17 1017.91 1018.68 1019.47 1020.28 1021.09 1021.88 1022.63 1023.31 1023.90 1024.36 1024.69 1024.90 1025.00 1025.02 1024.97 1024.90 1024.82 1024.75
1022.51 1022.53 1022.49 1022.37 1022.20 1021.98 1021.72 1021.39 1021.00 1020.53 1019.97 1019.34 1018.65 1017.93 1017.23 1016.60 1016.08 1015.71 1015.51 1015.49 1015.63 1015.91 1016.31 1016.79 1017.33 1017.92 1018.54 1019.20 1019.89 1020.60 1021.32 1022.03 1022.70 1023.31 1023.82 1024.23 1024.52 1024.70 1024.78 1024.79 1024.76 1024.70 1024.64 1024.58
1024.10 1024.09 1024.02 1023.90 1023.75 1023.55 1023.30 1022.99 1022.61 1022.13 1021.57 1020.93 1020.24 1019.52 1018.84 1018.22 1017.72 1017.36 1017.15 1017.10 1017.19 1017.40 1017.69 1018.05 1018.47 1018.91 1019.40 1019.92 1020.47 1021.06 1021.66 1022.26 1022.83 1023.34 1023.77 1024.10 1024.33 1024.46 1024.52 1024.52 1024.50 1024.46 1024.43 1024.38
1025.41 1025.36 1025.29 1025.20 1025.09 1024.94 1024.74 1024.47 1024.11 1023.65 1023.10 1022.47 1021.78 1021.09 1020.42 1019.83 1019.36 1019.01 1018.81 1018.75 1018.79 1018.93 1019.14 1019.39 1019.67 1019.98 1020.33 1020.71 1021.13 1021.58 1022.06 1022.54 1022.99 1023.40 1023.73 1023.97 1024.13 1024.21 1024.24 1024.23 1024.21 1024.18 1024.16 1024.14
1026.40 1026.35 1026.30 1026.26 1026.20 1026.12 1025.98 1025.76 1025.43 1025.00 1024.46 1023.83 1023.16 1022.47 1021.82 1021.26 1020.81 1020.49 1020.30 1020.22 1020.24 1020.32 1020.45 1020.60 1020.77 1020.96 1021.18 1021.44 1021.74 1022.08 1022.45 1022.82 1023.17 1023.47 1023.71 1023.87 1023.96 1023.98 1023.96 1023.92 1023.88 1023.84 1023.82 1023.80
1027.12 1027.09 1027.09 1027.11 1027.13 1027.12 1027.04 1026.86 1026.56 1026.14 1025.59 1024.96 1024.27 1023.58 1022.94 1022.39 1021.96 1021.65 1021.46 1021.37 1021.36 1021.39 1021.45 1021.53 1021.61 1021.71 1021.84 1022.00 1022.22 1022.47 1022.76 1023.05 1023.33 1023.55 1023.71 1023.79 1023.80 1023.75 1023.67 1023.58 1023.50 1023.44 1023.40 1023.36
1027.67 1027.69 1027.76 1027.86 1027.95 1028.00 1027.97 1027.81 1027.51 1027.07 1026.50 1025.83 1025.12 1024.41 1023.76 1023.20 1022.77 1022.46 1022.26 1022.15 1022.11 1022.10 1022.10 1022.11 1022.13 1022.16 1022.22 1022.34 1022.50 1022.72 1022.96 1023.21 1023.43 1023.60 1023.70 1023.71 1023.65 1023.53 1023.37 1023.22 1023.07 1022.97 1022.88 1022.82
1028.14 1028.24 1028.40 1028.57 1028.73 1028.82 1028.80 1028.64 1028.31 1027.82 1027.20 1026.48 1025.73 1024.98 1024.31 1023.73 1023.29 1022.96 1022.74 1022.61 1022.53 1022.47 1022.42 1022.37 1022.33 1022.32 1022.35 1022.44 1022.58 1022.79 1023.02 1023.26 1023.46 1023.60 1023.66 1023.62 1023.49 1023.29 1023.06 1022.83 1022.61 1022.44 1022.30 1022.19
1028.61 1028.81 1029.05 1029.29 1029.48 1029.58 1029.55 1029.34 1028.96 1028.41 1027.73 1026.95 1026.15 1025.37 1024.66 1024.07 1023.61 1023.26 1023.01 1022.84 1022.71 1022.60 1022.49 1022.39 1022.30 1022.26 1022.26 1022.34 1022.49 1022.70 1022.94 1023.19 1023.39 1023.53 1023.56 1023.48 1023.30 1023.04 1022.74 1022.42 1022.13 1021.88 1021.67 1021.51
1029.14 1029.43 1029.73 1030.00 1030.20 1030.27 1030.19 1029.93 1029.47 1028.85 1028.10 1027.28 1026.44 1025.64 1024.92 1024.31 1023.83 1023.46 1023.18 1022.96 1022.78 1022.60 1022.43 1022.28 1022.14 1022.06 1022.05 1022.11 1022.27 1022.49 1022.75 1023.01 1023.23 1023.36 1023.38 1023.28 1023.06 1022.76 1022.39 1022.01 1021.65 1021.32 1021.05 1020.83
1029.71 1030.06 1030.38 1030.65 1030.81 1030.82 1030.67 1030.33 1029.80 1029.12 1028.33 1027.48 1026.62 1025.83 1025.12 1024.52 1024.04 1023.65 1023.34 1023.08 1022.83 1022.59 1022.36 1022.13 1021.94 1021.82 1021.77 1021.82 1021.97 1022.20 1022.47 1022.74 1022.97 1023.11 1023.13 1023.02 1022.78 1022.45 1022.04 1021.61 1021.19 1020.81 1020.48 1020.19
1030.29 1030.63 1030.93 1031.14 1031.23 1031.16 1030.91 1030.49 1029.90 1029.18 1028.38 1027.54 1026.71 1025.95 1025.29 1024.72 1024.26 1023.87 1023.54 1023.23 1022.93 1022.62 1022.31 1022.02 1021.76 1021.58 1021.50 1021.52 1021.65 1021.87 1022.14 1022.41 1022.64 1022.78 1022.81 1022.70 1022.47 1022.13 1021.71 1021.25 1020.80 1020.37 1019.98 1019.63
1030.80 1031.09 1031.30 1031.41 1031.38 1031.20 1030.86 1030.37 1029.74 1029.01 1028.23 1027.44 1026.69 1026.00 1025.40 1024.89 1024.46 1024.09 1023.74 1023.40 1023.04 1022.67 1022.29 1021.93 1021.61 1021.38 1021.24 1021.23 1021.33 1021.52 1021.77 1022.03 1022.26 1022.41 1022.45 1022.35 1022.14 1021.81 1021.40 1020.94 1020.47 1020.01 1019.57 1019.16
1031.18 1031.35 1031.43 1031.40 1031.24 1030.94 1030.51 1029.96 1029.31 1028.61 1027.88 1027.18 1026.52 1025.93 1025.42 1024.98 1024.59 1024.24 1023.88 1023.51 1023.11 1022.68 1022.24 1021.82 1021.45 1021.16 1020.98 1020.93 1020.99 1021.15 1021.38 1021.63 1021.85 1022.00 1022.05 1021.99 1021.80 1021.51 1021.13 1020.69 1020.22 1019.74 1019.25 1018.77
1031.41 1031.41 1031.32 1031.13 1030.82 1030.41 1029.90 1029.31 1028.68 1028.02 1027.37 1026.76 1026.20 1025.71 1025.29 1024.92 1024.57 1024.23 1023.86 1023.46 1023.02 1022.55 1022.07 1021.61 1021.20 1020.88 1020.68 1020.59 1020.63 1020.77 1020.97 1021.20 1021.42 1021.58 1021.65 1021.62 1021.48 1021.23 1020.89 1020.48 1020.02 1019.53 1019.00 1018.45
1031.45 1031.28 1031.01 1030.66 1030.21 1029.70 1029.14 1028.53 1027.92 1027.31 1026.74 1026.22 1025.76 1025.35 1024.99 1024.66 1024.33 1023.98 1023.60 1023.17 1022.70 1022.20 1021.70 1021.22 1020.81 1020.48 1020.27 1020.18 1020.21 1020.34 1020.53 1020.76 1020.98 1021.15 1021.25 1021.26 1021.16 1020.96 1020.67 1020.30 1019.85 1019.34 1018.78 1018.15
1031.34 1030.99 1030.57 1030.08 1029.53 1028.95 1028.34 1027.74 1027.15 1026.60 1026.09 1025.64 1025.23 1024.86 1024.53 1024.20 1023.85 1023.48 1023.06 1022.60 1022.10 1021.59 1021.09 1020.62 1020.23 1019.93 1019.74 1019.67 1019.72 1019.85 1020.05 1020.29 1020.52 1020.71 1020.84 1020.89 1020.84 1020.69 1020.45 1020.10 1019.67 1019.15 1018.55 1017.87
1031.10 1030.63 1030.09 1029.50 1028.89 1028.26 1027.65 1027.05 1026.49 1025.98 1025.50 1025.07 1024.68 1024.30 1023.93 1023.56 1023.16 1022.73 1022.26 1021.77 1021.25 1020.74 1020.25 1019.83 1019.48 1019.24 1019.10 1019.08 1019.16 1019.32 1019.55 1019.80 1020.05 1020.27 1020.43 1020.51 1020.50 1020.40 1020.19 1019.88 1019.46 1018.94 1018.31 1017.58
1030.78 1030.24 1029.64 1029.02 1028.38 1027.76 1027.15 1026.57 1026.03 1025.53 1025.05 1024.60 1024.16 1023.73 1023.28 1022.82 1022.33 1021.82 1021.29 1020.75 1020.22 1019.72 1019.27 1018.90 1018.62 1018.45 1018.39 1018.44 1018.57 1018.78 1019.04 1019.31 1019.58 1019.82 1020.01 1020.12 1020.15 1020.08 1019.90 1019.62 1019.21 1018.69 1018.05 1017.29
1030.43 1029.88 1029.29 1028.68 1028.08 1027.48 1026.90 1026.35 1025.81 1025.29 1024.78 1024.26 1023.73 1023.19 1022.64 1022.05 1021.46 1020.85 1020.25 1019.67 1019.13 1018.65 1018.26 1017.96 1017.76 1017.68 1017.70 1017.82 1018.01 1018.26 1018.55 1018.85 1019.14 1019.40 1019.60 1019.74 1019.79 1019.74 1019.59 1019.32 1018.93 1018.41 1017.78 1017.02
1030.09 1029.58 1029.06 1028.52 1027.98 1027.45 1026.91 1026.37 1025.83 1025.27 1024.68 1024.07 1023.43 1022.76 1022.06 1021.35 1020.64 1019.94 1019.28 1018.67 1018.14 1017.69 1017.36 1017.13 1017.02 1017.02 1017.12 1017.30 1017.55 1017.84 1018.15 1018.47 1018.77 1019.03 1019.24 1019.39 1019.45 1019.42 1019.28 1019.02 1018.65 1018.15 1017.53 1016.81
Thickness
5544 5536 5529 5527 5525 5528 5523 5517 5514 5517 5515 5509 5507 5512 5519 5516 5510 5508 5505 5503 5503 5502 5500 5498 5495 5494 5492 5490 5489 5488 5487 5486 5485 5486 5488 5489 5491 5493 5496 5500 5504 5507 5510 5513
5529 5524 5527 5524 5520 5517 5513 5509 5506 5508 5505 5502 5495 5501 5509 5506 5503 5501 5498 5495 5494 5492 5490 5488 5486 5483 5481 5480 5479 5478 5476 5475 5475 5476 5476 5477 5478 5480 5483 5487 5491 5495 5499 5501
5525 5522 5521 5518 5511 5508 5505 5499 5498 5496 5494 5490 5484 5496 5500 5499 5493 5491 5489 5487 5484 5482 5481 5479 5476 5473 5471 5469 5468 5469 5467 5466 5465 5465 5465 5465 5466 5468 5471 5475 5479 5483 5487 5490
5508 5509 5510 5508 5503 5499 5498 5495 5490 5486 5476 5471 5473 5471 5492 5486 5483 5484 5479 5475 5473 5471 5471 5468 5466 5463 5461 5459 5458 5457 5457 5456 5454 5454 5454 5454 5455 5457 5459 5461 5465 5470 5474 5478
5502 5500 5498 5497 5494 5490 5486 5481 5475 5471 5463 5454 5452 5452 5475 5471 5474 5477 5471 5466 5463 5461 5460 5458 5456 5454 5451 5448 5446 5446 5446 5445 5444 5443 5443 5442 5443 5445 5447 5449 5453 5458 5462 5467
5489 5487 5484 5483 5480 5478 5471 5465 5457 5445 5441 5445 5446 5442 5458 5460 5466 5467 5463 5457 5453 5451 5449 5447 5445 5442 5440 5437 5435 5434 5434 5434 5433 5433 5432 5432 5432 5433 5435 5438 5442 5446 5451 5455
5478 5477 5471 5468 5467 5464 5458 5452 5443 5439 5428 5440 5435 5434 5450 5458 5455 5453 5449 5446 5442 5440 5438 5436 5433 5432 5430 5427 5425 5423 5423 5423 5423 5422 5422 5422 5422 5424 5426 5428 5432 5436 5440 5443
5459 5463 5460 5455 5454 5449 5443 5444 5437 5432 5426 5426 5422 5424 5446 5446 5442 5439 5436 5433 5432 5429 5427 5425 5423 5421 5418 5417 5415 5413 5413 5414 5413 5413 5414 5414 5414 5415 5417 5420 5423 5426 5430 5434
5442 5449 5448 5445 5441 5440 5434 5425 5423 5411 5398 5395 5411 5416 5431 5439 5432 5428 5425 5423 5420 5418 5416 5414 5413 5411 5408 5406 5405 5404 5404 5404 5405 5405 5406 5406 5405 5405 5407 5410 5413 5417 5420 5424
5431 5428 5434 5431 5431 5425 5422 5412 5401 5399 5400 5398 5407 5410 5422 5428 5424 5417 5412 5410 5410 5408 5406 5404 5402 5401 5399 5397 5396 5395 5394 5395 5395 5396 5397 5398 5397 5397 5399 5401 5404 5408 5411 5414
5418 5413 5416 5416 5414 5413 5406 5403 5399 5390 5386 5386 5390 5415 5417 5413 5410 5403 5401 5400 5398 5397 5395 5393 5391 5390 5388 5387 5386 5386 5386 5386 5387 5388 5389 5389 5389 5390 5391 5393 5397 5400 5403 5405
5405 5396 5395 5402 5402 5399 5397 5394 5388 5390 5382 5368 5371 5400 5404 5397 5393 5392 5392 5390 5388 5386 5384 5382 5380 5379 5378 5378 5377 5377 5377 5378 5379 5380 5381 5381 5381 5382 5384 5387 5390 5392 5395 5398
5394 5387 5388 5399 5393 5384 5381 5378 5376 5375 5370 5359 5364 5393 5392 5384 5384 5382 5380 5379 5377 5376 5375 5372 5370 5369 5368 5368 5368 5368 5368 5369 5371 5372 5372 5373 5374 5376 5378 5380 5383 5385 5387 5390
5392 5378 5380 5388 5390 5377 5369 5368 5362 5361 5362 5358 5364 5381 5384 5377 5374 5372 5369 5367 5365 5364 5363 5361 5360 5359 5358 5358 5359 5360 5361 5361 5363 5365 5365 5366 5368 5369 5372 5375 5377 5378 5380 5382
5378 5370 5365 5367 5368 5362 5359 5361 5356 5351 5356 5358 5368 5365 5372 5365 5358 5356 5354 5354 5353 5353 5352 5351 5350 5349 5349 5350 5350 5352 5353 5353 5355 5357 5358 5360 5361 5363 5364 5367 5370 5371 5373 5376
5363 5358 5355 5357 5360 5352 5353 5360 5357 5353 5351 5349 5351 5353 5356 5349 5345 5344 5343 5342 5341 5341 5340 5339 5339 5339 5340 5341 5341 5343 5345 5346 5347 5349 5350 5352 5354 5356 5357 5360 5362 5364 5367 5370
5350 5346 5348 5351 5347 5351 5353 5355 5350 5344 5340 5339 5341 5345 5341 5339 5338 5335 5331 5329 5329 5329 5328 5328 5328 5328 5328 5329 5331 5332 5334 5336 5338 5340 5342 5344 5345 5347 5349 5352 5354 5357 5359 5363
5341 5339 5337 5336 5338 5344 5356 5342 5340 5336 5332 5327 5329 5330 5328 5326 5324 5321 5318 5316 5317 5317 5317 5317 5317 5317 5317 5318 5320 5322 5324 5326 5328 5331 5333 5335 5337 5339 5341 5343 5346 5349 5353 5356
5336 5334 5328 5323 5320 5331 5341 5333 5324 5324 5326 5321 5318 5319 5316 5312 5314 5316 5311 5307 5306 5305 5304 5304 5305 5306 5307 5308 5310 5312 5314 5316 5318 5321 5324 5327 5328 5331 5333 5336 5338 5341 5345 5348
5324 5322 5319 5313 5315 5321 5329 5319 5314 5315 5319 5315 5308 5306 5303 5302 5307 5310 5301 5297 5296 5295 5295 5295 5295 5296 5297 5298 5299 5302 5304 5306 5308 5310 5313 5316 5319 5322 5324 5327 5330 5333 5337 5340
5311 5307 5305 5303 5302 5311 5310 5304 5308 5311 5313 5303 5298 5295 5291 5289 5290 5289 5286 5286 5285 5285 5285 5285 5285 5285 5286 5287 5289 5291 5293 5295 5297 5299 5302 5306 5309 5313 5316 5318 5321 5324 5327 5330
5301 5297 5294 5292 5290 5304 5299 5296 5296 5297 5294 5290 5287 5284 5281 5278 5277 5275 5275 5274 5274 5275 5275 5275 5274 5274 5275 5276 5278 5280 5281 5284 5287 5290 5292 5296 5299 5302 5306 5308 5311 5314 5316 5319
5294 5295 5293 5291 5298 5295 5286 5286 5284 5281 5280 5279 5277 5275 5271 5269 5267 5266 5264 5263 5263 5264 5264 5264 5263 5264 5264 5265 5266 5267 5270 5273 5277 5280 5282 5285 5288 5291 5294 5297 5299 5302 5304 5307
5286 5283 5283 5283 5288 5284 5280 5276 5274 5272 5270 5269 5267 5264 5262 5259 5258 5255 5254 5254 5253 5253 5253 5253 5253 5253 5254 5255 5256 5256 5259 5262 5266 5268 5271 5274 5277 5280 5283 5285 5288 5290 5292 5295
5275 5272 5271 5273 5275 5274 5275 5269 5265 5264 5263 5260 5257 5254 5252 5250 5248 5245 5244 5243 5243 5244 5243 5243 5242 5242 5243 5245 5246 5247 5249 5252 5255 5257 5260 5263 5265 5267 5270 5273 5275 5277 5279 5282
5260 5258 5259 5266 5263 5259 5262 5259 5257 5255 5253 5251 5248 5246 5243 5240 5237 5235 5234 5233 5233 5233 5234 5234 5233 5233 5234 5235 5236 5238 5239 5241 5244 5247 5249 5251 5252 5255 5257 5261 5264 5266 5268 5271